Preview of NWS' New Version of Forecast
This preview is not operational and should not be used for support decisions.
Latest weather observations around

Half Moon Bay Airport (KHAF)

Using International System of Units (Switch to English Units)
Date/ Time (PDT) Wind (kph) Vis. (km) Weather Sky Cond. Temp (°C) Rel. Humidity Wind Chill (°C) Heat Index (°C) Pressure Precip. (cm)
Air Dwpt 6 hour Altimeter (hPa) Sea level (hPa) 1 hr 3 hr 6 hr
Max Min
Notice The following observation data may not be complete
Aug 20 07:00   16.09 Cloudy OVC018          %              
Aug 20 06:55 N 5 16.09 Cloudy OVC016 15 14     94%     1016.9        
Aug 20 06:40 NNW 5 16.09 Cloudy OVC016 15 14     94%     1016.6        
Aug 20 06:35   16.09 Cloudy OVC016 15 14     94%     1016.6        
Aug 20 06:20 NW 8 16.09 Cloudy OVC014 15 14     94%     1016.6        
Aug 20 06:15 NW 5 16.09 Cloudy OVC014 15 14     94%     1016.3        
Aug 20 05:55 NNW 8 16.09 Cloudy OVC016 15 14     94%     1016.3        
Aug 20 05:40 Calm 16.09 Cloudy OVC016 15 14     94%     1016.3        
Aug 20 05:35 NNW 5 16.09 Cloudy OVC018 15 14     94%     1016.3        
Aug 20 05:20 Calm 16.09 Cloudy OVC018 15 14     94%     1016.3        
Aug 20 05:15 NNW 5 16.09 Cloudy OVC018 15 14     94%     1016.3        
Aug 20 05:00 Calm 16.09 Cloudy OVC020 15 14     94%     1016.3        
Aug 20 04:55 Calm 16.09 Cloudy OVC020 15 14     94%     1015.9        
Aug 20 04:40 Calm 16.09 Cloudy OVC020 15 14     94%     1015.9        
Aug 20 04:35 Calm 16.09 Cloudy OVC020 15 14     94%     1015.9        
Aug 20 04:15 WNW 5 16.09 Cloudy OVC022 15 14     94%     1016.3        
Aug 20 04:00 NW 5 16.09 Cloudy OVC022 15 14     94%     1016.3        
Aug 20 03:55 Calm 16.09 Cloudy OVC022 15 14     94%     1015.9        
Aug 20 03:40 Calm 16.09 Cloudy OVC022 15 14     94%     1015.9        
Aug 20 03:35 WNW 5 16.09 Cloudy OVC022 15 14     94%     1016.3        
Aug 20 03:20 N 5 16.09 Cloudy OVC022 15 14     94%     1015.9        
Aug 20 03:15 Calm 16.09 Cloudy OVC022 15 14     94%     1015.9        
Aug 20 03:00 Calm 16.09 Cloudy OVC020 15 14     94%     1016.3        
Aug 20 02:55 Calm 16.09 Cloudy OVC020 15 14     94%     1016.3        
Aug 20 02:35 Calm 16.09 Cloudy OVC020 15 14     94%     1016.3        
Aug 20 02:20 Calm 16.09 Cloudy OVC018 15 14     94%     1016.3        
Aug 20 02:15 Calm 16.09 Cloudy OVC018 15 14     94%     1016.3        
Aug 20 02:00 Calm 16.09 Cloudy OVC018 15 14     94%     1016.6        
Aug 20 01:55 WNW 5 16.09 Cloudy OVC018 15 14     94%     1016.3        
Aug 20 01:40 WNW 8 16.09 Cloudy OVC018 15 14     94%     1016.3        
Aug 20 01:35 WNW 8 16.09 Cloudy FEW009 OVC018 15 14     94%     1016.3        
Aug 20 01:20 Calm 16.09 Cloudy FEW009 OVC018 15 14     94%     1016.3        
Aug 20 01:15 Calm 16.09 Cloudy SCT009 OVC018 15 14     94%     1016.3        
Aug 20 01:00 Calm 16.09 Cloudy SCT009 OVC016 15 14     94%     1016.3        
Aug 20 00:55 Calm 16.09 Cloudy BKN011 OVC018 15 14     94%     1016.3        
Aug 20 00:35 Calm 16.09 Cloudy BKN010 OVC017 15 14     94%     1016.3        
Aug 20 00:20 Calm 16.09 Cloudy OVC015 15 13     88%     1016.3        
Aug 20 00:15 Calm 16.09 Cloudy OVC015 14 13     94%     1016.3        
Aug 20 00:00 Calm 16.09 Cloudy OVC017 14 13     94%     1015.9        
Aug 19 23:55 Calm 16.09 Cloudy OVC017 14 13     94%     1015.9        
Aug 19 23:40 Calm 16.09 Clear   14 13     94%     1015.9        
Aug 19 23:35 Calm 16.09 Clear   14 13     94%     1015.9        
Aug 19 23:20 Calm 16.09 Clear   14 13     94%     1015.9        
Aug 19 23:15 Calm 16.09 Clear   13 13     100%     1015.9        
Aug 19 23:00 Calm 16.09 Clear   13 13     100%     1015.9        
Aug 19 22:55 Calm 16.09 Clear   13 12     94%     1015.9        
Aug 19 22:40 Calm 16.09 Mostly Cloudy BKN017 13 12     94%     1015.9        
Aug 19 22:35 Calm 16.09 Mostly Cloudy BKN019 13 12     94%     1015.9        
Aug 19 22:15 Calm 16.09 Cloudy OVC019 14 13     94%     1015.9        
Aug 19 22:00 Calm 16.09 Cloudy FEW009 OVC019 15 14     94%     1015.9        
Aug 19 21:55 Calm 16.09 Cloudy FEW009 OVC019 15 14     94%     1015.9        
Aug 19 21:40 Calm 16.09 Cloudy SCT007 BKN014 OVC019 15 14     94%     1015.9        
Aug 19 21:35 Calm 16.09 Cloudy BKN007 OVC014 15 14     94%     1015.9        
Aug 19 21:20 Calm 16.09 Cloudy SCT009 OVC014 15 14     94%     1015.9        
Aug 19 21:15 WNW 5 16.09 Cloudy BKN009 OVC014 15 14     94%     1015.9        
Aug 19 21:00 WNW 5 16.09 Cloudy OVC011 15 14     94%     1015.9        
Aug 19 20:55 W 5 16.09 Cloudy OVC011 15 14     94%     1015.9        
Aug 19 20:35 NW 8 16.09 Cloudy OVC013 15 14     94%     1015.6        
Aug 19 20:20 WNW 8 16.09 Cloudy OVC011 15 14     94%     1015.6        
Aug 19 20:15 WNW 9 16.09 Cloudy OVC011 15 14     94%     1015.6        
Aug 19 20:00 W 8 16.09 Cloudy OVC011 16 14     88%     1015.6        
Aug 19 19:55 WSW 8 16.09 Cloudy OVC011 16 14     88%     1015.6        
Aug 19 19:40 SW 8 16.09 Cloudy OVC013 16 14     88%     1015.6        
Aug 19 19:35 WSW 5 16.09 Cloudy OVC013 16 14     88%     1015.2        
Aug 19 19:20 W 5 16.09 Cloudy OVC015 17 14     83%     1015.6        
Aug 19 19:15 W 5 16.09 Cloudy OVC015 17 14     83%     1015.6        
Aug 19 19:00 WSW 5 16.09 Mostly Cloudy BKN017 17 14     83%     1015.6        
Aug 19 18:55 SW 5 16.09 Mostly Cloudy BKN017 17 14     83%     1015.6        
Aug 19 18:40 SSW 8 16.09 Cloudy OVC019 17 14     83%     1015.6        
Aug 19 18:35 SSW 8 16.09 Cloudy OVC019 17 15     88%     1015.6        
Aug 19 18:15 SW 8 16.09 Cloudy OVC017 17 14     83%     1015.9        
Aug 19 18:00 SW 8 16.09 Cloudy OVC017 17 15     88%     1015.9        
Aug 19 17:55 SSW 5 16.09 Cloudy OVC017 17 14     83%     1015.9        
Aug 19 17:40 S 8 16.09 Cloudy OVC017 17 14     83%     1016.3        
Aug 19 17:35 SW 8 16.09 Cloudy OVC017 17 14     83%     1016.3        
Aug 19 17:20 S 9 16.09 Cloudy OVC017 17 15     88%     1016.3        
Aug 19 17:15 Calm 16.09 Cloudy OVC017 17 14     83%     1016.3        
Aug 19 17:00 SW 8 16.09 Cloudy OVC017 17 14     83%     1016.3        
Aug 19 16:55 WSW 9 16.09 Cloudy OVC017 17 14     83%     1016.3        
Aug 19 16:40 WSW 9 16.09 Cloudy OVC017 17 14     83%     1016.3        
Aug 19 16:35 SW 9 16.09 Cloudy OVC017 17 14     83%     1016.3        
Aug 19 16:15   16.09 Cloudy OVC017 17 14     83%     1016.6        
Aug 19 16:00 SSW 9 16.09 Cloudy OVC017 17 14     83%     1016.6        
Aug 19 15:55 SSW 9 16.09 Cloudy OVC017 17 14     83%     1016.6        
Aug 19 15:40 SW 13 16.09 Cloudy OVC017 17 14     83%     1016.6        
Aug 19 15:35 SW 13 16.09 Cloudy OVC017 17 14     83%     1016.6        
Aug 19 15:20 SW 11 16.09 Cloudy OVC015 17 15     88%     1016.6        
Aug 19 15:15 SW 9 16.09 Cloudy OVC015 17 15     88%     1016.6        
Aug 19 15:00 SSW 9 16.09 Cloudy OVC013 17 14     83%     1016.9        
Aug 19 14:55 SSW 11 16.09 Cloudy OVC013 17 14     83%     1016.9        
Aug 19 14:35 S 15 14.48 Cloudy OVC013 17 14     83%     1016.9        
Aug 19 14:20 S 17 16.09 Cloudy OVC017 17 15     88%     1016.9        
Aug 19 14:15 S 15 16.09 Cloudy OVC017 17 14     83%     1016.9        
Aug 19 14:00 SSW 15 16.09 Cloudy OVC017 17 14     83%     1016.9        
Aug 19 13:55 S 17 14.48 Cloudy OVC017 17 14     83%     1016.6        
Aug 19 13:40 S 15 16.09 Cloudy OVC015 17 14     83%     1016.6        
Aug 19 13:35 S 15 16.09 Cloudy OVC013 17 14     83%     1016.6        
Aug 19 13:20 S 17 16.09 Cloudy FEW008 OVC013 17 15     88%     1016.6        
Aug 19 13:15 S 15 16.09 Cloudy FEW008 BKN013 OVC018 17 15     88%     1016.6        
Aug 19 12:55 S 17 14.48 Cloudy SCT006 OVC015 16 15     94%     1016.6        
Aug 19 12:40 S 17 16.09 Cloudy FEW006 OVC015 16 15     94%     1016.6        
Aug 19 12:35 S 15 16.09 Cloudy FEW006 OVC015 16 15     94%     1016.6        
Aug 19 12:20 S 13 12.87 Mostly Cloudy FEW005 BKN015 16 15     94%     1016.6        
Aug 19 12:15 S 15 14.48 Mostly Cloudy SCT006 BKN015 16 15     94%     1016.6        
Aug 19 12:00 S 9 11.27 Mostly Cloudy BKN006 BKN015 15 15     100%     1016.6        
Aug 19 11:55 S 13 11.27 Mostly Cloudy BKN005 BKN015 15 15     100%     1016.6        
Aug 19 11:40 S 11 8.05 Fog/Mist BKN005 BKN015 15 14     94%     1016.6        
Aug 19 11:35 SSW 11 4.83 Fog/Mist BKN005 OVC015 15 14     94%     1016.6        
Aug 19 11:15 SSW 9 3.22 Fog/Mist OVC006 15 14     94%     1016.6        
Aug 19 11:00 SSE 8 4.02 Fog/Mist BKN006 OVC011 15 14     94%     1016.6        
Aug 19 10:55 S 8 4.02 Fog/Mist BKN005 OVC011 15 14     94%     1016.6        
Aug 19 10:40 SSW 8 3.22 Fog/Mist BKN004 OVC010 15 14     94%     1016.6        
Aug 19 10:35 S 8 4.02 Fog/Mist BKN004 BKN010 15 14     94%     1016.3        
Aug 19 10:20 S 8 3.22 Fog/Mist BKN004 BKN012 15 14     94%     1016.3        
Aug 19 10:15 S 8 4.02 Fog/Mist SCT004 SCT012 15 14     94%     1016.3        
Aug 19 10:00 SSE 8 4.02 Fog/Mist SCT005 SCT012 15 14     94%     1016.3        
Aug 19 09:55 S 8 4.02 Fog/Mist SCT004 15 14     94%     1016.3        
Aug 19 09:40 S 8 3.22 Fog/Mist BKN004 15 14     94%     1015.9        
Aug 19 09:35 SSE 8 1.61 Fog/Mist BKN004 15 14     94%     1015.9        
Aug 19 09:15 SSE 8 3.22 Fog/Mist SCT005 15 14     94%     1015.9        
Aug 19 09:00 SSE 8 2.82 Fog/Mist BKN004 14 14     100%     1015.6        
Aug 19 08:55 S 8 2.82 Fog/Mist BKN004 14 14     100%     1015.6        
Aug 19 08:40 S 8 2.82 Fog/Mist OVC005 14 14     100%     1015.6        
Aug 19 08:35 SE 8 2.82 Fog/Mist BKN004 OVC011 14 14     100%     1015.6        
Aug 19 08:20 SSE 5 4.02 Fog/Mist BKN004 OVC011 14 14     100%     1015.2        
Aug 19 08:15 SE 8 3.22 Fog/Mist BKN005 OVC011 14 14     100%     1015.2        
Aug 19 08:00 SSE 8 3.22 Fog/Mist OVC004 14 14     100%     1015.2        
Aug 19 07:55 SE 8 4.02 Fog/Mist BKN005 OVC009 14 14     100%     1014.9        
Aug 19 07:40 SE 8 2.82 Fog/Mist BKN004 OVC011 14 13     94%     1014.9        
Aug 19 07:35 SE 8 2.82 Fog/Mist OVC006 14 14     100%     1015.2        
Aug 19 07:15 ESE 5 2.82 Fog/Mist OVC006 14 13     94%     1015.2        
Aug 19 07:00 SE 5 4.02 Fog/Mist OVC006 14 13     94%     1014.9        
Aug 19 06:55 ESE 5 2.82 Fog/Mist OVC005 14 13     94%     1014.9        
Aug 19 06:40 SE 5 6.44 Fog/Mist BKN006 OVC010 14 13     94%     1014.9        
Aug 19 06:35 SE 5 8.05 Fog/Mist SCT004 OVC010 14 13     94%     1014.9        
Aug 19 06:20 SE 5 6.44 Fog/Mist OVC010 14 13     94%     1014.9        
Aug 19 06:15 SE 5 6.44 Fog/Mist OVC010 14 13     94%     1014.9        
Aug 19 06:00 ESE 5 4.83 Fog/Mist OVC008 14 13     94%     1014.6        
Aug 19 05:55 ESE 5 4.83 Fog/Mist OVC008 14 13     94%     1014.6        
Aug 19 05:40 SE 5 6.44 Fog/Mist OVC008 14 13     94%     1014.6        
Aug 19 05:35 SSE 5 6.44 Fog/Mist OVC008 14 13     94%     1014.6        
Aug 19 05:15 Calm 6.44 Fog/Mist OVC010 14 13     94%     1014.6        
Aug 19 05:00 SSE 5 8.05 Fog/Mist OVC010 14 13     94%     1014.6        
Aug 19 04:55 Calm 8.05 Fog/Mist OVC010 14 13     94%     1014.6        
Aug 19 04:40 E 5 16.09 Cloudy OVC012 14 13     94%     1014.6        
Aug 19 04:35 E 5 14.48 Cloudy OVC012 14 13     94%     1014.6        
Aug 19 04:20 ESE 5 12.87 Cloudy OVC012 14 13     94%     1014.6        
Aug 19 04:15 SE 8 14.48 Cloudy OVC012 14 13     94%     1014.6        
Aug 19 04:00 SSE 8 14.48 Cloudy OVC012 14 13     94%     1014.6        
Aug 19 03:55 SSE 8 16.09 Cloudy OVC012 14 13     94%     1014.6        
Aug 19 03:35 S 5 9.66 Fog/Mist OVC010 14 13     94%     1014.6        
Aug 19 03:20 S 5 12.87 Cloudy OVC010 14 13     94%     1014.6        
Aug 19 03:15 S 8 11.27 Cloudy OVC010 14 13     94%     1014.6        
Aug 19 03:00 SSW 5 8.05 Fog/Mist OVC008 14 13     94%     1014.6        
Aug 19 02:55 SW 8 8.05 Fog/Mist OVC008 14 13     94%     1014.6        
Aug 19 02:40 SW 5 8.05 Fog/Mist OVC008 14 13     94%     1014.6        
Aug 19 02:35 SW 5 9.66 Fog/Mist OVC008 14 13     94%     1014.6        
Aug 19 02:20 W 9 8.05 Fog/Mist OVC008 14 13     94%     1014.2        
Aug 19 02:15 WSW 5 6.44 Fog/Mist BKN006 OVC011 14 13     94%     1014.2        
Aug 19 01:55 WSW 8 8.05 Fog/Mist BKN007 OVC011 14 13     94%     1014.2        
Aug 19 01:35 SSW 8 8.05 Fog/Mist OVC007 14 13     94%     1014.6        
Aug 19 01:20 SSW 8 9.66 Fog/Mist OVC009 14 13     94%     1014.6        
Aug 19 01:15 SW 9 8.05 Fog/Mist OVC009 14 13     94%     1014.6        
Aug 19 01:00 SSW 9 8.05 Fog/Mist OVC007 14 13     94%     1014.6        
Aug 19 00:55 S 13 8.05 Fog/Mist OVC007 14 13     94%     1014.6        
Aug 19 00:40 S 11 8.05 Fog/Mist OVC007 14 13     94%     1014.6        
Aug 19 00:35 S 11 8.05 Fog/Mist OVC007 14 13     94%     1014.2        
Aug 19 00:20 S 11 8.05 Fog/Mist OVC007 14 13     94%     1014.2        
Aug 19 00:15 S 13 8.05 Fog/Mist OVC007 14 13     94%     1014.2        
Aug 18 23:55 S 15 14.48 Cloudy OVC010 14 13     94%     1014.6        
Aug 18 23:40 S 17 8.05 Fog/Mist OVC010 14 13     94%     1014.2        
Aug 18 23:35 S 18 8.05 Fog/Mist OVC010 14 13     94%     1014.2        
Aug 18 23:20 S 15 14.48 Cloudy OVC010 14 13     94%     1014.2        
Aug 18 23:15 SSW 13 16.09 Cloudy OVC010 14 13     94%     1014.2        
Aug 18 23:00 S 17 16.09 Cloudy OVC010 14 13     94%     1014.2        
Aug 18 22:55 S 15 11.27 Cloudy OVC008 14 13     94%     1014.2        
Aug 18 22:40 S 15 6.44 Fog/Mist OVC006 14 14     100%     1014.2        
Aug 18 22:35 S 21 4.83 Fog/Mist OVC006 14 14     100%     1014.2        
Aug 18 22:15 S 17 6.44 Fog/Mist OVC010 15 14     94%     1013.9        
Aug 18 21:55 S 17 8.05 Fog/Mist FEW006 OVC012 14 14     100%     1013.9        
Aug 18 21:40 SSE 18 14.48 Cloudy FEW006 OVC012 14 14     100%     1013.9        
Aug 18 21:35 S 15 16.09 Cloudy OVC012 14 14     100%     1013.9        
Aug 18 21:20 SSE 17 4.83 Fog/Mist FEW004 OVC010 14 14     100%     1013.6        
Aug 18 21:15 S 18 4.83 Fog/Mist FEW004 OVC010 14 14     100%     1013.6        
Aug 18 21:00 S 18 4.83 Fog/Mist SCT004 OVC010 14 13     94%     1013.6        
Aug 18 20:55 S 15 4.02 Fog/Mist FEW005 BKN010 OVC013 14 13     94%     1013.6        
Aug 18 20:40 S 15 11.27 Cloudy SCT006 OVC013 15 13     88%     1013.6        
Aug 18 20:35 S 13 16.09 Cloudy FEW007 OVC013 15 13     88%     1013.2        
Aug 18 20:20 S 11 16.09 Cloudy OVC013 15 13     88%     1013.2        
Aug 18 20:15 S 15 16.09 Cloudy OVC013 15 13     88%     1013.2        
Aug 18 19:55 S 15 14.48 Cloudy OVC013 15 13     88%     1013.2        
Aug 18 19:40 S 13 14.48 Cloudy OVC013 15 13     88%     1013.2        
Aug 18 19:35 SSW 11 14.48 Cloudy OVC013 15 13     88%     1012.9        
Aug 18 19:20 S 17 14.48 Cloudy SCT009 OVC013 15 13     88%     1013.2        
Aug 18 19:15 S 15 14.48 Cloudy SCT009 OVC013 15 13     88%     1013.2        
Aug 18 19:00 S 17 14.48 Cloudy SCT007 OVC013 15 13     88%     1013.2        
Aug 18 18:55 S 15 14.48 Cloudy BKN007 OVC013 15 13     88%     1013.2        
Aug 18 18:40 SSE 13 6.44 Fog/Mist BKN007 OVC013 15 13     88%     1013.2        
Aug 18 18:35 SSE 15 8.05 Fog/Mist BKN009 OVC013 15 13     88%     1013.2        
Aug 18 18:20 SSE 15 6.44 Fog/Mist SCT009 BKN013 15 13     88%     1013.2        
Aug 18 18:15 S 17 4.83 Fog/Mist SCT009 BKN013 15 13     88%     1013.2        
Aug 18 17:55 S 13 11.27 Cloudy OVC013 15 13     88%     1013.2        
Aug 18 17:40 S 15 14.48 Cloudy FEW009 OVC013 15 13     88%     1013.2        
Aug 18 17:35 S 13 14.48 Cloudy FEW009 OVC013 15 13     88%     1013.2        
Aug 18 17:20 S 15 16.09 Mostly Cloudy FEW009 BKN013 15 13     88%     1013.2        
Aug 18 17:15 S 13 16.09 Mostly Cloudy FEW009 BKN013 15 13     88%     1013.2        
Aug 18 17:00 SW 11 14.48 Mostly Cloudy BKN013 16 13     82%     1013.6        
Aug 18 16:55 SSW 11 14.48 Mostly Cloudy FEW006 BKN013 16 13     82%     1013.6        
Aug 18 16:40 SSW 11 8.05 Fog/Mist SCT007 BKN013 15 14     94%     1013.6        
Aug 18 16:35 S 13 4.02 Fog/Mist BKN007 BKN013 15 14     94%     1013.6        
Aug 18 16:20 S 18 4.83 Fog/Mist OVC007 15 14     94%     1013.2        
Aug 18 16:15 S 18 4.83 Fog/Mist OVC006 15 14     94%     1013.2        
Aug 18 15:55 SSW 18 1.21 Fog/Mist OVC005 15 14     94%     1013.6        
Aug 18 15:40 S 24 12.87 Cloudy OVC013 17 14     83%     1013.2        
Aug 18 15:35 S 30 16.09 Cloudy OVC015 18 14     77%     1013.2        
Aug 18 15:20 S 28 16.09 Cloudy OVC015 18 14     77%     1013.2        
Aug 18 15:15 S 28 16.09 Cloudy OVC015 18 14     77%     1013.2        
Aug 18 15:00 S 30 16.09 Cloudy OVC015 19 14     73%     1013.2        
Aug 18 14:55 S 26 16.09 Cloudy OVC015 19 14     73%     1013.2        
Aug 18 14:40 S 30 16.09 Mostly Cloudy BKN015 19 14     73%     1013.6        
Aug 18 14:35 S 30 16.09 Mostly Cloudy BKN015 19 14     73%     1013.6        
Aug 18 14:15 S 24 16.09 Mostly Clear FEW017 19 14     73%     1013.6        
Aug 18 14:00 S 24 16.09 Clear CLR 19 14     73%     1013.6        
Aug 18 13:55 S 26 16.09 Clear CLR 19 14     73%     1013.6        
Aug 18 13:40 S 24 16.09 Mostly Clear FEW018 19 14     73%     1013.6        
Aug 18 13:35 S 28 16.09 Partly Cloudy SCT018 18 14     77%     1013.6        
Aug 18 13:20 S 26 16.09 Mostly Cloudy BKN018 19 14     73%     1013.2        
Aug 18 13:15 S 26 16.09 Cloudy OVC018 18 14     77%     1013.6        
Aug 18 13:00 S 26 16.09 Cloudy OVC016 18 13     73%     1013.6        
Aug 18 12:55 S 30 16.09 Mostly Cloudy BKN016 18 13     73%     1013.6        
Aug 18 12:40 S 28 16.09 Mostly Cloudy BKN016 17 13     77%     1013.6        
Aug 18 12:35 S 28 16.09 Mostly Cloudy BKN016 17 13     77%     1013.6        
Aug 18 12:20 S 26 14.48 Mostly Cloudy BKN016 17 13     77%     1013.6        
Aug 18 12:15 S 30 16.09 Partly Cloudy SCT016 17 13     77%     1013.6        
Aug 18 11:55 S 32 12.87 Mostly Clear and Windy FEW005 FEW022 17 13     77%     1013.2        
Aug 18 11:40   8.05 Haze FEW006 SCT020 16 13     82%     1013.2        
Aug 18 11:35   8.05 Haze FEW006 BKN020 17 14     83%     1013.2        
Aug 18 11:20   11.27 Cloudy FEW006 OVC020 16 14     88%     1013.2        
Aug 18 11:15   11.27 Cloudy FEW006 OVC020 16 14     88%     1012.9        
Aug 18 11:00   14.48 Cloudy OVC020 16 14     88%     1012.9        
Aug 18 10:55   16.09 Cloudy OVC020 17 14     83%     1012.9        
Aug 18 10:40   16.09 Cloudy OVC020 17 14     83%     1012.5        
Aug 18 10:35   16.09 Cloudy OVC020 17 14     83%     1012.5        
Aug 18 10:20   16.09 Cloudy OVC022 17 14     83%     1012.5        
Aug 18 10:15   16.09 Cloudy FEW006 FEW016 OVC022 17 14     83%     1012.5        
Aug 18 10:00 S 26 16.09 Mostly Cloudy BKN005 BKN022 16 14     88%     1012.2        
Aug 18 09:55 S 26 14.48 Cloudy BKN005 OVC022 15 14     94%     1012.2        
Aug 18 09:35 S 21 4.83 Fog/Mist OVC004 15 14     94%     1012.2        
Aug 18 09:20 S 22 3.22 Fog/Mist OVC005 14 13     94%     1012.2        
Aug 18 09:15 S 24 3.22 Fog/Mist OVC005 14 14     100%     1011.9        
Aug 18 09:00 S 24 4.02 Fog/Mist BKN005 OVC013 15 14     94%     1011.9        
Aug 18 08:55 S 22 3.22 Fog/Mist BKN005 OVC014 15 14     94%     1011.9        
Aug 18 08:40 S 21 12.87 Mostly Cloudy SCT005 BKN014 15 14     94%     1011.9        
Aug 18 08:35 S 22 11.27 Mostly Cloudy FEW004 BKN014 15 14     94%     1011.5        
Aug 18 08:20 S 24 4.83 Fog/Mist SCT004 BKN014 15 14     94%     1011.5        
Aug 18 08:15 S 22 4.83 Fog/Mist SCT004 SCT010 BKN014 15 14     94%     1011.5        
Aug 18 07:55 S 22 6.44 Fog/Mist FEW004 SCT010 BKN014 14 14     100%     1011.2        
Aug 18 07:40 SSW 21 2.82 Fog/Mist BKN005 OVC014 14 14     100%     1011.2        
Aug 18 07:35 SSW 21 3.22 Fog/Mist SCT003 SCT006 OVC014 15 14     94%     1011.2        
Aug 18 07:20 SSW 18 9.66 Fog/Mist SCT006 OVC014 15 14     94%     1011.2        
Aug 18 07:15 SSW 15 11.27 Cloudy SCT006 OVC014 15 14     94%     1011.2        
Aug 18 07:00 S 18 11.27 Cloudy SCT006 OVC014 15 13     88%     1011.2        
Aug 18 06:55 S 17 12.87 Cloudy FEW006 OVC014 15 13     88%     1010.8        
Aug 18 06:40 SSE 22 16.09 Cloudy OVC014 16 13     82%     1010.8        
Aug 18 06:35 SSE 21 16.09 Cloudy OVC014 16 13     82%     1010.8        
Aug 18 06:15 SSE 26 16.09 Cloudy OVC014 16 13     82%     1010.8        
Aug 18 06:00 SSE 26 16.09 Cloudy OVC014 15 13     88%     1010.5        
Aug 18 05:55 SSE 22 16.09 Cloudy OVC014 15 13     88%     1010.5        
Aug 18 05:40 SSE 22 16.09 Cloudy OVC014 15 13     88%     1010.5        
Aug 18 05:35 SSE 24 16.09 Cloudy OVC014 15 13     88%     1010.5        
Aug 18 05:20   16.09 Cloudy OVC016 15 13     88%     1010.5        
Aug 18 05:15 SSE 26 16.09 Cloudy OVC016 15 13     88%     1010.2        
Aug 18 05:00 SSE 22 16.09 Cloudy OVC016 15 13     88%     1010.5        
Aug 18 04:55 SSE 22 16.09 Cloudy OVC016 15 13     88%     1010.5        
Aug 18 04:35   16.09 Cloudy OVC016 16 13     82%     1010.5        
Aug 18 04:20 SSE 24 16.09 Cloudy OVC016 16 13     82%     1010.2        
Aug 18 04:15 SSE 24 16.09 Cloudy OVC016 16 13     82%     1010.2        
Aug 18 04:00 SSE 22 16.09 Cloudy OVC016 16 13     82%     1010.2        
Aug 18 03:55 SSE 24 16.09 Cloudy OVC016 16 13     82%     1010.2        
Aug 18 03:40 SSE 22 16.09 Cloudy OVC016 16 13     82%     1010.5        
Aug 18 03:35 SSE 26 16.09 Cloudy OVC016 16 13     82%     1010.2        
Aug 18 03:20 SSE 26 14.48 Cloudy OVC016 16 13     82%     1010.2        
Aug 18 03:15   14.48 Cloudy OVC016 16 13     82%     1010.2        
Aug 18 03:00 SSE 22 16.09 Cloudy OVC016 16 13     82%     1010.2        
Aug 18 02:55 SSE 24 16.09 Cloudy OVC016 16 13     82%     1010.2        
Aug 18 02:35 SSE 24 14.48 Cloudy OVC016 16 13     82%     1010.2        
Aug 18 02:20 SSE 24 14.48 Cloudy OVC016 16 13     82%     1010.2        
Aug 18 02:15 SSE 24 14.48 Cloudy OVC016 16 13     82%     1010.2        
Aug 18 02:00 SSE 24 12.87 Cloudy OVC016 16 13     82%     1010.2        
Aug 18 01:55 SSE 24 12.87 Cloudy OVC016 16 13     82%     1010.5        
Aug 18 01:40 SSE 22 12.87 Cloudy OVC016 16 13     82%     1010.5        
Aug 18 01:35 SSE 22 14.48 Cloudy OVC016 16 13     82%     1010.5        
Aug 18 01:20 SSE 21 12.87 Cloudy OVC016 16 13     82%     1010.5        
Aug 18 01:15 SSE 24 12.87 Cloudy OVC016 16 13     82%     1010.5        
Aug 18 00:55 S 21 11.27 Cloudy OVC016 15 14     94%     1010.8        
Aug 18 00:40 S 22 12.87 Cloudy OVC016 16 13     82%     1010.8        
Aug 18 00:35 SSE 22 11.27 Cloudy OVC016 15 13     88%     1010.8        
Aug 18 00:20 S 18 12.87 Cloudy OVC016 16 13     82%     1010.8        
Aug 18 00:15 SSE 24 12.87 Cloudy OVC016 16 13     82%     1010.8        
Aug 18 00:00 S 26 14.48 Cloudy OVC016 16 13     82%     1010.8        
Aug 17 23:55 SSE 21 14.48 Cloudy OVC016 16 13     82%     1010.8        
Aug 17 23:40 S 22 12.87 Cloudy OVC016 16 13     82%     1010.8        
Aug 17 23:35 SSE 18 12.87 Cloudy OVC016 16 13     82%     1010.8        
Aug 17 23:15 S 18 11.27 Cloudy OVC016 16 14     88%     1010.8        
Aug 17 23:00 S 18 16.09 Cloudy OVC016 16 13     82%     1010.8        
Aug 17 22:55 S 21 14.48 Cloudy OVC016 16 13     82%     1010.8        
Aug 17 22:40 S 22 14.48 Cloudy OVC014 16 13     82%     1010.8        
Aug 17 22:35 S 18 12.87 Cloudy OVC014 15 13     88%     1010.8        
Aug 17 22:20 S 15 11.27 Cloudy OVC014 15 13     88%     1010.8        
Aug 17 22:15 S 21 11.27 Cloudy OVC014 16 13     82%     1010.8        
Aug 17 22:00 SSE 21 12.87 Cloudy OVC014 16 13     82%     1010.8        
Aug 17 21:55 S 21 12.87 Cloudy OVC014 16 13     82%     1010.8        
Aug 17 21:35 S 21 11.27 Cloudy OVC014 16 14     88%     1010.8        
Aug 17 21:20 S 18 11.27 Cloudy OVC014 16 14     88%     1010.5        
Aug 17 21:15 S 21 11.27 Cloudy OVC014 16 13     82%     1010.5        
Aug 17 21:00 S 21 11.27 Cloudy OVC014 16 14     88%     1010.5        
Aug 17 20:55 S 21 11.27 Cloudy OVC014 16 14     88%     1010.5        
Aug 17 20:40 S 17 11.27 Cloudy OVC014 16 13     82%     1010.5        
Aug 17 20:35 SSE 21 11.27 Cloudy OVC014 16 13     82%     1010.2        
Aug 17 20:20 S 18 11.27 Cloudy OVC014 16 13     82%     1010.5        
Aug 17 20:15 S 21 11.27 Cloudy OVC014 16 13     82%     1010.5        
Aug 17 19:55 S 17 8.05 Haze OVC014 16 13     82%     1010.5        
Aug 17 19:40 S 17 8.05 Haze OVC016 16 13     82%     1010.5        
Aug 17 19:35 S 21 8.05 Haze OVC016 16 13     82%     1010.5        
Aug 17 19:20 S 18 9.66 Haze OVC016 17 13     77%     1010.5        
Aug 17 19:15 SSE 18 11.27 Cloudy OVC016 17 13     77%     1010.5        
Aug 17 19:00 SSE 21 11.27 Cloudy OVC016 17 13     77%     1010.5        
Aug 17 18:55 SSE 18 11.27 Cloudy OVC016 16 13     82%     1010.5        
Aug 17 18:40 SSE 21 11.27 Cloudy OVC016 16 13     82%     1010.5        
Aug 17 18:35 SSE 21 11.27 Cloudy OVC016 17 13     77%     1010.5        
Aug 17 18:15 S 21 11.27 Cloudy OVC016 16 13     82%     1010.8        
Aug 17 18:00 SSE 18 11.27 Cloudy OVC016 17 13     77%     1010.8        
Aug 17 17:55 SSE 21 11.27 Cloudy OVC016 17 13     77%     1010.8        
Aug 17 17:40 S 22 9.66 Haze OVC014 17 13     77%     1011.2        
Aug 17 17:35 S 21 9.66 Haze OVC014 16 13     82%     1011.2        
Aug 17 17:20 S 22 9.66 Haze OVC014 17 13     77%     1011.5        
Aug 17 17:15 S 21 11.27 Cloudy OVC014 17 13     77%     1011.5        
Aug 17 17:00 SSW 18 11.27 Cloudy OVC016 17 13     77%     1011.5        
Aug 17 16:55 S 15 11.27 Cloudy OVC016 17 13     77%     1011.5        
Aug 17 16:35 S 15 11.27 Cloudy OVC016 17 13     77%     1011.5        
Aug 17 16:20 S 11 9.66 Haze OVC016 17 13     77%     1011.9        
Aug 17 16:15 S 13 8.05 Haze OVC016 17 13     77%     1011.9        
Aug 17 16:00 S 13 8.05 Haze OVC016 17 13     77%     1011.9        
Aug 17 15:55 S 11 8.05 Haze OVC016 16 13     82%     1011.9        
Aug 17 15:40 S 13 8.05 Haze BKN016 16 13     82%     1012.2        
Aug 17 15:35 SSW 11 8.05 Fog/Mist BKN016 15 13     88%     1012.2        
Aug 17 15:20 SSW 11 8.05 Fog/Mist FEW016 15 13     88%     1012.2        
Aug 17 15:15 SW 13 8.05 Fog/Mist SCT016 15 13     88%     1012.2        
Aug 17 15:00 SW 11 8.05 Haze BKN016 15 13     88%     1012.5        
Aug 17 14:55 SW 13 8.05 Haze BKN014 15 13     88%     1012.5        
Aug 17 14:40 SW 13 8.05 Haze OVC014 16 13     82%     1012.5        
Aug 17 14:35 SW 13 8.05 Haze OVC014 15 13     88%     1012.5        
Aug 17 14:15 SW 15 11.27 Cloudy OVC014 15 12     82%     1012.9        
Aug 17 14:00 SW 22 9.66 Haze OVC014 15 13     88%     1012.9        
Aug 17 13:55 SW 24 9.66 Haze OVC014 15 13     88%     1012.9        
Aug 17 13:40 SSW 15 11.27 Cloudy OVC014 16 13     82%     1012.9        
Aug 17 13:35 SSW 18 11.27 Cloudy OVC014 16 13     82%     1012.9        
Aug 17 13:20 S 26 8.05 Haze OVC012 16 13     82%     1012.9        
Aug 17 13:15 S 24 8.05 Haze OVC012 16 13     82%     1012.9        
Aug 17 13:00 S 18 8.05 Haze BKN012 16 13     82%     1012.9        
Aug 17 12:55 S 18 8.05 Haze OVC012 17 13     77%     1012.9        
Aug 17 12:35 S 21 8.05 Haze OVC012 16 13     82%     1012.9        
Aug 17 12:20 S 15 8.05 Haze BKN012 17 13     77%     1012.9        
Aug 17 12:15 S 17 8.05 Haze SCT012 17 13     77%     1012.9        
Aug 17 12:00 S 21 6.44 Haze CLR 17 13     77%     1012.5        
Aug 17 11:55 S 26 6.44 Haze CLR 17 13     77%     1012.5        
Aug 17 11:40 S 26 8.05 Haze FEW021 17 14     83%     1012.9        
Aug 17 11:35 S 24 8.05 Haze FEW021 17 14     83%     1012.9        
Aug 17 11:20 S 28 8.05 Haze FEW013 SCT019 17 14     83%     1012.9        
Aug 17 11:15 S 28 8.05 Haze SCT013 BKN019 18 14     77%     1012.9        
Aug 17 10:55 S 30 9.66 Haze FEW013 OVC019 17 14     83%     1012.5        
Aug 17 10:35 S 26 9.66 Haze BKN015 BKN020 17 13     77%     1012.5        
Aug 17 10:20 S 26 8.05 Haze BKN014 17 14     83%     1012.5        
Aug 17 10:15 S 28 8.05 Fog/Mist SCT014 16 14     88%     1012.5        
Aug 17 10:00   8.05 Fog/Mist FEW009 BKN012 16 14     88%     1012.5        
Aug 17 09:55 S 26 8.05 Fog/Mist OVC012 15 14     94%     1012.2        
Aug 17 09:40   8.05 Fog/Mist OVC012 15 14     94%     1012.2        
Aug 17 09:35   8.05 Fog/Mist OVC012 15 14     94%     1012.2        
Aug 17 09:20   11.27 Cloudy OVC012 15 14     94%     1012.2        
Aug 17 09:15   12.87 Cloudy OVC012 15 13     88%     1012.2        
Aug 17 08:55 S 26 12.87 Cloudy OVC010 15 13     88%     1011.9        
Aug 17 08:35 S 21 6.44 Fog/Mist OVC008 15 13     88%     1011.9        
Aug 17 08:20 S 21 8.05 Fog/Mist OVC008 15 13     88%     1011.9        
Aug 17 08:15 S 24 9.66 Fog/Mist OVC008 15 13     88%     1011.5        
Aug 17 08:00 S 28 8.05 Fog/Mist OVC008 15 13     88%     1011.5        
Aug 17 07:55   8.05 Fog/Mist OVC008 15 13     88%     1011.5        
Aug 17 07:40 S 24 6.44 Fog/Mist OVC010 15 13     88%     1011.5        
Aug 17 07:35 S 26 4.83 Fog/Mist OVC010 15 13     88%     1011.2        
Aug 17 07:20 SSE 26 4.83 Fog/Mist OVC010 15 13     88%     1011.2        
Aug 17 07:15 S 26 4.83 Fog/Mist OVC010 15 13     88%     1011.2        
Aug 17 07:00 S 22 6.44 Fog/Mist OVC010 15 13     88%     1011.2        
Aug 17 06:55   6.44 Fog/Mist OVC010 15 13     88%     1011.2        
Aug 17 06:35 S 26 9.66 Fog/Mist OVC008 15 13     88%     1011.2        
Aug 17 06:20 S 26 8.05 Fog/Mist OVC008 15 13     88%     1010.8        
Aug 17 06:15 SSE 26 8.05 Fog/Mist OVC008 15 13     88%     1010.8        
Aug 17 06:00 SSE 26 8.05 Fog/Mist OVC008 14 13     94%     1010.8        
Aug 17 05:55 S 26 8.05 Fog/Mist OVC008 14 13     94%     1010.8        
May 15 10:40 S 9 16.09 Cloudy OVC028 14 9     72%     1018.3        
May 15 02:40 SW 5 16.09 Cloudy OVC022 12 9     82%     1016.3        
May 15 02:15 Calm 16.09 Cloudy OVC022 12 9     82%     1016.6        
Notice The following observation data may not be complete
May 14 20:20   16.09 Clear            %              
May 14 15:15 SW 13 16.09 Cloudy OVC024 14 10     77%     1016.9        
May 14 09:20 Calm 16.09 Cloudy OVC016 12 9     82%     1016.6        
May 14 04:40 Calm 16.09 Cloudy OVC016 12 9     82%     1016.3        
May 14 03:15 WSW 8 16.09 Cloudy OVC018 12 9     82%     1016.3        
May 13 20:15 S 8 8.05 Fog/Mist SCT026 12 10     88%     1016.6        
May 13 18:00 S 9 8.05 Fog/Mist OVC024 13 11     88%     1016.9        
Notice The following observation data may not be complete
May 13 15:00   9.66 Haze OVC024          %              
May 13 12:00 S 13 8.05 Haze OVC027 14 12     88%     1018        
May 13 11:55 S 17 8.05 Haze OVC027 14 12     88%     1018        
May 13 10:15 SSW 17 8.05 Clear   13 10     82%     1017.3        
May 13 07:40 S 15 8.05 Fog/Mist OVC021 12 10     88%     1016.6        
May 13 01:35 S 15 8.05 Fog/Mist OVC015 12 10     88%     1015.6        
May 12 18:35 S 18 8.05 Fog/Mist OVC011 13 10     82%     1013.9        
May 12 18:00 S 17 8.05 Haze BKN011 13 10     82%     1013.9        
May 12 17:35 SSE 17 8.05 Haze SCT013 13 10     82%     1013.9        
May 12 17:15 SSE 17 8.05 Haze FEW013 14 10     77%     1013.9        
May 12 16:15 SSE 22 8.05 Haze BKN013 14 10     77%     1014.2        
May 12 12:00 S 26 11.27 Clear CLR 14 10     77%     1014.2        
May 12 04:55 SE 21 4.02 Fog/Mist OVC002 10 9     94% 7   1010.8        
May 12 01:40 Calm 4.02 Clear   8 6     87%     1009.8        
May 12 01:00 Calm 4.83 Fog/Mist OVC002 7 5     87%     1009.8        
May 12 00:35 Calm 6.44 Fog/Mist OVC002 8 6     87%     1009.8        
May 11 22:40 Calm 8.05 Fog/Mist OVC002 9 7     87%     1010.2        
May 11 22:20 Calm 8.05 Fog/Mist OVC003 10 8     87%     1010.2        
May 11 21:55 Calm 8.05 Fog/Mist OVC003 10 8     87%     1009.8        
May 11 21:40 Calm 8.05 Fog/Mist OVC003 10 8     87%     1009.8        
May 11 20:35 SSE 9 4.83 Haze FEW003 12 8     77%     1009.2        
May 11 16:55   8.05 Haze CLR 17 9     59%     1009.2        
May 11 13:55 NNW 32 6.44 Haze CLR 14 10     77%     1010.5        
May 11 13:35 NW 32 6.44 Haze CLR 14 10     77%     1010.5        
May 11 10:00 NW 15 6.44 Haze CLR 13 10     82%     1012.2        
May 11 07:00 Calm 8.05 Fog/Mist CLR 8 7     93%     1011.9        
Jun 11 19:35 NW 22 8.05 Clear   13 10     82%     1015.9        
Jun 11 19:15 NW 26 8.05 Clear   14 10     77%     1016.3        
Jun 11 18:55 NNW 32 11.27 Clear and Windy   14 10     77%     1016.3        
Jun 11 11:15 NW 28 12.87 Clear CLR 14 10     77%     1015.2        
Jun 11 10:35 NW 32 12.87 Clear and Windy CLR 14 9     72%     1014.9        
Notice The following observation data may not be complete
Jun 11 02:35   12.87 Clear CLR          %              
Jun 11 01:55 NW 28 12.87 Clear CLR 12 10     88%     1014.6        
Jun 10 19:15 WNW 11 11.27 Partly Cloudy SCT014 15 12     82%     1015.2        
Jun 10 15:55 WNW 17 14.48 Clear   16 11     72%     1015.9        
Jun 10 09:15 NW 15 11.27 Partly Cloudy SCT010 14 12     88%     1016.6        
Notice The following observation data may not be complete
Jun 10 06:35   8.05 Fog/Mist FEW010 SCT015 BKN021          %              
Jun 10 06:15 NNW 11 9.66 Fog/Mist FEW010 BKN019 BKN024 12 11     94%     1015.6        
Jun 10 02:15 NW 13 11.27 Cloudy OVC017 12 11     94%     1015.9        
Jun 09 17:35 NW 21 11.27 Clear CLR 15 12     82%     1015.9        
Notice The following observation data may not be complete
Jun 09 12:15   11.27 Mostly Clear FEW009          %              
Jun 09 07:15 NW 5 1.21 Fog/Mist OVC003 12 12     100%     1014.6        
Jun 08 20:55 SSE 9 2.41 Clear   14 14     100%     1015.9        
Jun 08 17:15 S 15 11.27 Cloudy OVC011 15 14     94%     1016.6        
Jun 08 16:15 S 22 3.22 Fog/Mist OVC011 15 14     94%     1016.6        
Jun 07 22:15 SSE 9 11.27 Clear CLR 13 12     94%     1014.9        
Jun 07 21:15 SSE 11 14.48 Mostly Cloudy BKN009 14 12     88%     1014.2        
Jun 07 13:35 W 15 11.27 Clear CLR 14 11     82%     1015.6        
Notice The following observation data may not be complete
Jun 05 20:35   4.83 Fog/Mist OVC010          %